User: anonymous   Login
Location: Natural Bridges National Monument
(37.6093°N, 109.9767°W)
Time: 23:09:27
(UTC-07:00)
Language:

USA 32 - Orbit

View from above orbital plane
View from above orbital plane
View from above satellite
View from above satellite

Ground track
Ground track

The orbit data is extracted from the following two-line orbital elements,

1 19460U 88078A   17323.68930537 0.00000040  00000-0  14511-4 0    01
2 19460  84.9862 131.7645 0006000  17.5761 342.4238 14.33430216    02
Epoch (UTC): 19 November 2017 16:32:35
Eccentricity: 0.0006000
inclination: 84.9862°
perigee height: 776 km
apogee height: 784 km
right ascension of ascending node: 131.7645°
argument of perigee: 17.5761°
revolutions per day: 14.33430216
mean anomaly at epoch: 342.4238°
orbit number at epoch: 0

The dashed part of the orbit path shows where the satellite is in the earth's shadow,  

DLR